1514206800.21,44890,9.25,73590.0,-5.11,-5.77,-5.69,0,*5B
1514206801.45,44891,9.25,73556.3,-5.09,-5.73,-5.65,0,*5B
1514206802.72,44892,9.25,73554.3,-5.11,-5.77,-5.69,0,*59
1514206803.96,44893,9.25,73562.5,-5.09,-5.73,-5.65,0,*59
1514206805.23,44894,9.25,73578.3,-5.11,-5.69,-5.65,0,*5C
1514206806.5,44895,9.25,73592.0,-5.11,-5.69,-5.69,0,*51
1514206807.75,44896,9.25,73574.0,-5.09,-5.65,-5.65,0,*5B
1514206808.99,44897,9.25,73584.3,-5.09,-5.73,-5.65,0,*5D
1514206810.24,44898,9.25,73584.5,-5.09,-5.65,-5.65,0,*55
1514206811.48,44899,9.25,73550.8,-5.09,-5.73,-5.65,0,*53
1514206812.73,44900,9.25,73582.8,-5.09,-5.65,-5.65,0,*55
1514206814.0,44901,9.25,73594.0,-5.11,-5.69,-5.69,0,*5D
1514206815.27,44902,9.25,73606.5,-5.11,-5.69,-5.69,0,*5E
1514206816.52,44903,9.25,73590.0,-5.09,-5.69,-5.65,0,*5A
1514206817.79,44904,9.25,73588.5,-5.11,-5.65,-5.65,0,*58
1514206819.04,44905,9.25,73604.5,-5.09,-5.69,-5.69,0,*50
1514206820.29,44906,9.31,73612.8,-5.09,-5.65,-5.65,0,*53
1514206821.56,44907,9.25,73606.3,-5.11,-5.69,-5.69,0,*5B
1514206822.83,44908,9.25,73608.0,-5.11,-5.69,-5.65,0,*58
1514206824.1,44909,9.25,73616.0,-5.11,-5.77,-5.65,0,*56
1514206825.35,44910,9.25,73608.0,-5.09,-5.77,-5.65,0,*57
1514206826.62,44911,9.31,73610.5,-5.11,-5.69,-5.69,0,*5C
1514206827.87,44912,9.25,73618.0,-5.09,-5.65,-5.65,0,*56
1514206829.12,44913,9.25,73602.5,-5.09,-5.65,-5.65,0,*57
1514206830.37,44914,9.25,73608.0,-5.09,-5.69,-5.61,0,*58
1514206831.64,44915,9.25,73614.0,-5.11,-5.69,-5.69,0,*58
1514206832.91,44916,9.25,73614.3,-5.11,-5.69,-5.69,0,*5B
1514206834.19,44917,9.31,73618.5,-5.11,-5.69,-5.69,0,*5A
1514206835.46,44918,9.25,73606.8,-5.11,-5.69,-5.69,0,*55
1514206836.7,44919,9.25,73610.3,-5.09,-5.65,-5.73,0,*5A
1514206837.97,44920,9.31,73612.8,-5.11,-5.77,-5.69,0,*51
1514206839.24,44921,9.31,73604.3,-5.11,-5.77,-5.69,0,*50
1514206840.52,44922,9.25,73608.3,-5.11,-5.69,-5.69,0,*5C
1514206841.79,44923,9.25,73608.5,-5.11,-5.69,-5.69,0,*5D
1514206843.06,44924,9.25,73606.8,-5.11,-5.69,-5.69,0,*5A
1514206844.31,44925,9.31,73596.5,-5.09,-5.65,-5.65,0,*52
1514206845.55,44926,9.31,73592.5,-5.09,-5.65,-5.73,0,*56
1514206846.82,44927,9.25,73598.3,-5.11,-5.77,-5.77,0,*59
1514206848.09,44928,9.25,73598.8,-5.11,-5.69,-5.69,0,*56
1514206849.34,44929,9.25,73594.3,-5.09,-5.61,-5.61,0,*5E
1514206850.61,44930,9.25,73594.5,-5.11,-5.69,-5.69,0,*5F
1514206851.88,44931,9.25,73586.8,-5.11,-5.69,-5.69,0,*5E
1514206853.13,44932,9.25,73580.0,-5.09,-5.65,-5.65,0,*54
1514206854.4,44933,9.25,73578.5,-5.11,-5.69,-5.69,0,*5C
1514206855.65,44934,9.31,73588.3,-5.09,-5.65,-5.65,0,*52
1514206856.92,44935,9.25,73586.5,-5.11,-5.77,-5.69,0,*55
1514206858.19,44936,9.25,73588.8,-5.11,-5.69,-5.69,0,*59
1514206859.44,44937,9.31,73580.0,-5.09,-5.73,-5.61,0,*52
1514206860.71,44938,9.25,73578.3,-5.11,-5.77,-5.69,0,*58
1514206861.96,44939,9.25,73570.5,-5.09,-5.73,-5.61,0,*5C
1514206863.2,44940,9.31,73588.8,-5.09,-5.65,-5.65,0,*51
1514206864.46,44941,9.25,73608.8,-5.09,-5.65,-5.65,0,*50
1514206865.72,44942,9.31,73608.8,-5.11,-5.69,-5.77,0,*55
1514206866.96,44943,9.31,73610.3,-5.09,-5.73,-5.65,0,*55
1514206868.21,44944,9.31,73612.8,-5.09,-5.65,-5.61,0,*51
1514206869.49,44945,9.25,73600.5,-5.11,-5.65,-5.69,0,*51
1514206870.76,44946,9.25,73618.0,-5.11,-5.69,-5.69,0,*5E
1514206872.03,44947,9.25,73630.8,-5.11,-5.69,-5.69,0,*5F
1514206873.3,44948,9.25,73618.5,-5.11,-5.77,-5.69,0,*5F
1514206874.57,44949,9.25,73632.5,-5.11,-5.69,-5.77,0,*5E
1514206875.81,44950,9.31,73634.8,-5.09,-5.61,-5.65,0,*54
1514206877.08,44951,9.25,73628.5,-5.11,-5.77,-5.69,0,*57
1514206878.36,44952,9.31,73646.0,-5.11,-5.69,-5.69,0,*5B
1514206879.63,44953,9.31,73632.5,-5.11,-5.65,-5.65,0,*5A
1514206880.9,44954,9.25,73618.5,-5.11,-5.69,-5.69,0,*5D
1514206882.17,44955,9.25,73614.3,-5.11,-5.69,-5.69,0,*5C
1514206883.42,44956,9.25,73612.8,-5.09,-5.65,-5.61,0,*52
1514206884.7,44957,9.25,73630.5,-5.11,-5.69,-5.69,0,*5E
1514206885.97,44958,9.25,73638.0,-5.11,-5.69,-5.65,0,*5D
1514206887.22,44959,9.31,73642.0,-5.09,-5.65,-5.61,0,*5D
1514206888.49,44960,9.25,73640.8,-5.11,-5.69,-5.69,0,*5A
1514206889.74,44961,9.25,73628.8,-5.09,-5.65,-5.65,0,*52
1514206890.99,44962,9.31,73626.0,-5.09,-5.69,-5.61,0,*59
1514206892.26,44963,9.31,73620.5,-5.11,-5.77,-5.69,0,*56
1514206893.51,44964,9.25,73614.5,-5.09,-5.69,-5.61,0,*5F
1514206894.79,44965,9.31,73614.3,-5.11,-5.69,-5.69,0,*5F
1514206896.06,44966,9.25,73606.8,-5.11,-5.65,-5.69,0,*50
1514206897.33,44967,9.25,73604.5,-5.11,-5.69,-5.65,0,*51
1514206898.6,44968,9.31,73614.5,-5.11,-5.69,-5.69,0,*52
1514206899.87,44969,9.25,73608.5,-5.11,-5.69,-5.69,0,*53
1514206901.14,44970,9.31,73588.0,-5.11,-5.77,-5.69,0,*54
1514206902.42,44971,9.25,73590.3,-5.11,-5.69,-5.69,0,*5A
1514206903.69,44972,9.25,73604.0,-5.11,-5.65,-5.69,0,*55
1514206904.93,44973,9.25,73600.8,-5.09,-5.65,-5.65,0,*51
1514206906.21,44974,9.25,73616.0,-5.11,-5.69,-5.65,0,*53
1514206907.48,44975,9.25,73614.3,-5.11,-5.69,-5.69,0,*5E
1514206908.75,44976,9.25,73618.8,-5.11,-5.69,-5.65,0,*51
1514206910.0,44977,9.31,73638.3,-5.09,-5.65,-5.61,0,*51
1514206911.27,44978,9.25,73614.0,-5.11,-5.69,-5.69,0,*53
1514206912.54,44979,9.25,73608.5,-5.11,-5.65,-5.65,0,*52
1514206913.82,44980,9.25,73604.5,-5.11,-5.65,-5.65,0,*54
1514206915.09,44981,9.31,73616.3,-5.11,-5.69,-5.69,0,*55
1514206916.36,44982,9.25,73612.5,-5.11,-5.69,-5.69,0,*56
1514206917.61,44983,9.31,73618.0,-5.09,-5.65,-5.61,0,*5A
1514206918.86,44984,9.31,73606.8,-5.09,-5.65,-5.61,0,*5D
1514206920.14,44985,9.25,73610.5,-5.11,-5.69,-5.65,0,*5D
1514206921.41,44986,9.25,73608.5,-5.11,-5.69,-5.65,0,*5E
1514206922.68,44987,9.31,73620.3,-5.11,-5.65,-5.69,0,*5F
1514206923.95,44988,9.25,73606.8,-5.11,-5.69,-5.65,0,*50
1514206925.22,44989,9.25,73608.0,-5.11,-5.65,-5.65,0,*5D
1514206926.49,44990,9.25,73606.3,-5.11,-5.69,-5.69,0,*55
1514206927.76,44991,9.25,73610.3,-5.11,-5.69,-5.65,0,*58
1514206929.01,44992,9.25,73608.3,-5.09,-5.61,-5.61,0,*5E
1514206930.27,44993,9.25,73606.3,-5.09,-5.65,-5.61,0,*5B
1514206931.54,44994,9.25,73614.0,-5.11,-5.65,-5.69,0,*5D
1514206932.81,44995,9.25,73586.8,-5.11,-5.65,-5.65,0,*50
1514206934.08,44996,9.25,73598.3,-5.11,-5.65,-5.69,0,*5F
1514206935.35,44997,9.31,73620.5,-5.11,-5.69,-5.65,0,*5E
1514206936.6,44998,9.31,73604.5,-5.09,-5.61,-5.61,0,*54
1514206937.87,44999,9.31,73612.5,-5.11,-5.69,-5.69,0,*5C
1514206939.12,45000,9.25,73602.3,-5.09,-5.61,-5.65,0,*59
1514206940.39,45001,9.31,73622.5,-5.11,-5.69,-5.65,0,*59
1514206941.66,45002,9.25,73618.3,-5.11,-5.69,-5.69,0,*56
1514206942.93,45003,9.25,73618.5,-5.11,-5.69,-5.69,0,*57
1514206944.2,45004,9.25,73594.8,-5.11,-5.69,-5.65,0,*5C
1514206945.47,45005,9.25,73578.0,-5.11,-5.69,-5.65,0,*5D
1514206946.72,45006,9.25,73588.5,-5.09,-5.65,-5.65,0,*5B
1514206947.97,45007,9.31,73590.8,-5.09,-5.65,-5.61,0,*5E
1514206949.25,45008,9.31,73578.5,-5.11,-5.69,-5.65,0,*50
1514206950.5,45009,9.25,73590.3,-5.09,-5.61,-5.61,0,*54
1514206951.77,45010,9.25,73590.0,-5.11,-5.65,-5.65,0,*55
1514206953.01,45011,9.25,73592.0,-5.09,-5.61,-5.65,0,*59
1514206954.26,45012,9.25,73600.8,-5.09,-5.69,-5.69,0,*5E
1514206955.53,45013,9.25,73606.0,-5.11,-5.69,-5.65,0,*5A
1514206956.8,45014,9.31,73604.3,-5.11,-5.69,-5.65,0,*5D
1514206958.07,45015,9.25,73610.3,-5.11,-5.69,-5.69,0,*50
1514206959.32,45016,9.25,73610.3,-5.09,-5.69,-5.65,0,*56
1514206960.59,45017,9.25,73612.5,-5.11,-5.69,-5.65,0,*5E
1514206961.87,45018,9.25,73618.3,-5.11,-5.65,-5.69,0,*51
1514206963.14,45019,9.25,73622.5,-5.11,-5.69,-5.65,0,*50
1514206964.41,45020,9.31,73626.0,-5.11,-5.65,-5.69,0,*5A
1514206965.65,45021,9.25,73626.5,-5.09,-5.61,-5.65,0,*5A
1514206966.92,45022,9.31,73634.3,-5.11,-5.65,-5.65,0,*54
1514206968.17,45023,9.31,73606.5,-5.09,-5.65,-5.65,0,*5C
1514206969.42,45024,9.25,73594.8,-5.09,-5.65,-5.65,0,*5B
1514206970.67,45025,9.25,73582.0,-5.09,-5.65,-5.65,0,*5A
1514206971.94,45026,9.25,73594.0,-5.11,-5.69,-5.65,0,*5C
1514206973.19,45027,9.25,73602.8,-5.09,-5.69,-5.61,0,*50
1514206974.44,45028,9.31,73594.3,-5.09,-5.65,-5.61,0,*53
1514206975.71,45029,9.25,73604.5,-5.11,-5.69,-5.65,0,*53
1514206976.96,45030,9.31,73612.3,-5.09,-5.61,-5.61,0,*5E
1514206978.23,45031,9.25,73606.3,-5.11,-5.65,-5.65,0,*56
1514206979.5,45032,9.25,73602.5,-5.11,-5.77,-5.65,0,*56
1514206980.76,45033,9.31,73610.5,-5.09,-5.65,-5.61,0,*59
1514206982.0,45034,9.31,73590.5,-5.09,-5.61,-5.65,0,*5E
1514206983.25,45035,9.25,73590.3,-5.09,-5.65,-5.61,0,*5F
1514206984.51,45036,9.31,73602.8,-5.09,-5.65,-5.61,0,*5C
1514206985.75,45037,9.25,73606.0,-5.09,-5.61,-5.65,0,*5D
1514206987.0,45038,9.25,73600.8,-5.09,-5.61,-5.61,0,*56
1514206988.25,45039,9.25,73600.8,-5.09,-5.65,-5.61,0,*53
1514206989.5,45040,9.25,73600.0,-5.09,-5.65,-5.61,0,*5D
1514206990.75,45041,9.25,73592.5,-5.09,-5.69,-5.65,0,*54
1514206992.01,45042,9.25,73604.0,-5.09,-5.65,-5.61,0,*5F
1514206993.26,45043,9.31,73606.8,-5.09,-5.65,-5.61,0,*5E
1514206994.53,45044,9.31,73604.3,-5.11,-5.65,-5.65,0,*54
1514206995.78,45045,9.25,73614.0,-5.09,-5.61,-5.61,0,*5C
1514206997.03,45046,9.25,73626.5,-5.09,-5.61,-5.61,0,*5F
1514206998.3,45047,9.25,73614.3,-5.11,-5.69,-5.65,0,*5B
1514206999.57,45048,9.25,73602.8,-5.11,-5.69,-5.69,0,*58
1514207000.82,45049,9.25,73590.5,-5.09,-5.61,-5.61,0,*50
1514207002.07,45050,9.31,73592.3,-5.09,-5.61,-5.61,0,*58
1514207003.34,45051,9.31,73588.3,-5.11,-5.69,-5.65,0,*5C
1514207004.59,45052,9.25,73596.0,-5.09,-5.61,-5.61,0,*5A
1514207005.86,45053,9.31,73602.5,-5.11,-5.65,-5.65,0,*52
1514207007.11,45054,9.31,73600.0,-5.09,-5.65,-5.61,0,*58
1514207008.38,45055,9.25,73596.3,-5.11,-5.65,-5.69,0,*58
1514207009.65,45056,9.31,73594.0,-5.11,-5.65,-5.65,0,*57
1514207010.92,45057,9.31,73610.5,-5.11,-5.65,-5.65,0,*56
1514207012.17,45058,9.25,73614.5,-5.09,-5.61,-5.61,0,*50
1514207013.42,45059,9.25,73614.5,-5.09,-5.65,-5.65,0,*51
1514207014.67,45060,9.25,73602.8,-5.09,-5.61,-5.61,0,*5B
1514207015.92,45061,9.31,73612.8,-5.09,-5.61,-5.61,0,*5A
1514207017.19,45062,9.31,73606.8,-5.11,-5.69,-5.65,0,*5C
1514207018.46,45063,9.25,73606.5,-5.11,-5.69,-5.69,0,*51
1514207019.71,45064,9.25,73602.8,-5.09,-5.65,-5.61,0,*5B
1514207020.99,45065,9.25,73598.0,-5.11,-5.69,-5.69,0,*57
1514207022.24,45066,9.25,73592.8,-5.09,-5.65,-5.61,0,*59
1514207023.51,45067,9.31,73596.3,-5.11,-5.69,-5.65,0,*59
1514207024.78,45068,9.31,73604.0,-5.11,-5.65,-5.65,0,*5A
1514207026.03,45069,9.31,73600.0,-5.09,-5.65,-5.61,0,*56
1514207027.28,45070,9.31,73606.3,-5.09,-5.65,-5.65,0,*5A
1514207028.52,45071,9.25,73598.0,-5.09,-5.61,-5.65,0,*5F
1514207029.77,45072,9.25,73588.3,-5.09,-5.61,-5.61,0,*58
1514207031.03,45073,9.31,73598.3,-5.09,-5.65,-5.61,0,*5D
1514207032.3,45074,9.31,73588.5,-5.11,-5.69,-5.69,0,*57
1514207033.55,45075,9.31,73570.0,-5.09,-5.65,-5.61,0,*5B
1514207034.8,45076,9.25,73606.8,-5.09,-5.61,-5.65,0,*58
1514207036.04,45077,9.31,73616.8,-5.09,-5.65,-5.65,0,*5D
1514207037.29,45078,9.25,73618.8,-5.09,-5.61,-5.61,0,*52
1514207038.54,45079,9.25,73616.5,-5.09,-5.65,-5.65,0,*53
1514207039.79,45080,9.31,73606.3,-5.09,-5.61,-5.61,0,*55
1514207041.04,45081,9.31,73632.3,-5.09,-5.61,-5.61,0,*54
1514207042.29,45082,9.25,73642.3,-5.09,-5.65,-5.61,0,*53
1514207043.56,45083,9.25,73638.3,-5.11,-5.69,-5.65,0,*53
1514207044.84,45084,9.25,73630.0,-5.11,-5.65,-5.61,0,*5C
1514207046.09,45085,9.31,73618.8,-5.09,-5.61,-5.61,0,*50
1514207047.34,45086,9.31,73620.5,-5.09,-5.65,-5.61,0,*57
1514207048.59,45087,9.31,73632.5,-5.09,-5.65,-5.61,0,*56
1514207049.84,45088,9.31,73626.8,-5.09,-5.61,-5.61,0,*5D
1514207051.11,45089,9.31,73618.3,-5.11,-5.69,-5.65,0,*59
1514207052.38,45090,9.25,73614.0,-5.11,-5.65,-5.65,0,*5D
1514207053.65,45091,9.25,73618.5,-5.11,-5.69,-5.65,0,*50
1514207054.9,45092,9.25,73630.8,-5.09,-5.65,-5.61,0,*52
1514207056.15,45093,9.31,73624.3,-5.09,-5.61,-5.65,0,*53
1514207057.4,45094,9.31,73628.0,-5.09,-5.65,-5.61,0,*54
1514207058.63,45095,9.31,73634.5,-5.09,-5.65,-5.51,0,*56
1514207059.9,45096,9.31,73632.3,-5.11,-5.65,-5.65,0,*5B
1514207061.15,45097,9.25,73638.0,-5.09,-5.65,-5.61,0,*57
1514207062.4,45098,9.25,73638.8,-5.09,-5.69,-5.61,0,*54
1514207063.65,45099,9.25,73646.0,-5.09,-5.65,-5.61,0,*59
1514207064.93,45100,9.31,73646.3,-5.11,-5.69,-5.69,0,*55
1514207066.17,45101,9.31,73652.3,-5.09,-5.65,-5.65,0,*5D
1514207067.45,45102,9.31,73650.5,-5.11,-5.69,-5.65,0,*5B
1514207068.72,45103,9.31,73640.8,-5.11,-5.69,-5.69,0,*56
1514207069.97,45104,9.25,73636.3,-5.09,-5.65,-5.61,0,*5C
1514207071.22,45105,9.31,73630.0,-5.09,-5.65,-5.61,0,*5D
1514207072.47,45106,9.31,73624.8,-5.09,-5.65,-5.65,0,*5A
1514207073.72,45107,9.31,73620.8,-5.09,-5.65,-5.61,0,*5F
1514207074.99,45108,9.31,73620.3,-5.11,-5.69,-5.65,0,*51
1514207076.24,45109,9.25,73616.8,-5.09,-5.61,-5.65,0,*51
1514207077.48,45110,9.31,73624.3,-5.09,-5.61,-5.65,0,*59
1514207078.73,45111,9.31,73620.5,-5.09,-5.61,-5.65,0,*58
1514207080.0,45112,9.31,73618.8,-5.11,-5.69,-5.65,0,*5A
1514207081.27,45113,9.25,73604.5,-5.11,-5.65,-5.69,0,*5B
1514207082.52,45114,9.25,73600.8,-5.09,-5.65,-5.61,0,*5D
1514207083.77,45115,9.25,73604.0,-5.09,-5.61,-5.61,0,*58
1514207085.02,45116,9.31,73606.0,-5.09,-5.61,-5.61,0,*5B
1514207086.27,45117,9.31,73576.5,-5.09,-5.65,-5.61,0,*5E
1514207087.52,45118,9.25,73610.0,-5.09,-5.65,-5.61,0,*51
1514207088.8,45119,9.25,73600.3,-5.11,-5.69,-5.65,0,*51
1514207090.05,45120,9.25,73598.5,-5.09,-5.65,-5.61,0,*5A
1514207091.3,45121,9.31,73626.3,-5.09,-5.69,-5.65,0,*53
1514207092.57,45122,9.31,73630.3,-5.11,-5.69,-5.69,0,*55
1514207093.82,45123,9.25,73630.0,-5.09,-5.65,-5.61,0,*59
1514207095.09,45124,9.25,73610.3,-5.11,-5.65,-5.69,0,*5F
1514207096.36,45125,9.31,73622.3,-5.11,-5.69,-5.65,0,*5E
1514207097.61,45126,9.25,73624.5,-5.09,-5.65,-5.65,0,*58
1514207098.86,45127,9.25,73622.3,-5.09,-5.65,-5.61,0,*5D
1514207100.11,45128,9.25,73626.5,-5.09,-5.65,-5.61,0,*52
1514207101.36,45129,9.25,73620.0,-5.09,-5.65,-5.65,0,*57
1514207102.61,45130,9.25,73616.5,-5.09,-5.61,-5.65,0,*5B
1514207103.86,45131,9.31,73612.8,-5.09,-5.65,-5.61,0,*5A
1514207105.11,45132,9.31,73608.0,-5.09,-5.73,-5.61,0,*5E
1514207106.35,45133,9.31,73610.8,-5.09,-5.65,-5.65,0,*5C
1514207107.61,45134,9.31,73608.5,-5.09,-5.65,-5.61,0,*5F
1514207108.86,45135,9.31,73608.8,-5.09,-5.65,-5.61,0,*5E
1514207110.11,45136,9.31,73612.8,-5.09,-5.61,-5.61,0,*59
1514207111.38,45137,9.25,73620.8,-5.11,-5.69,-5.69,0,*51
1514207112.65,45138,9.31,73630.0,-5.11,-5.69,-5.69,0,*5E
1514207113.92,45139,9.25,73624.0,-5.11,-5.65,-5.69,0,*53
1514207115.17,45140,9.31,73620.5,-5.09,-5.65,-5.65,0,*58
1514207116.42,45141,9.31,73624.0,-5.09,-5.65,-5.61,0,*5D
1514207117.69,45142,9.25,73622.8,-5.11,-5.69,-5.65,0,*5F
1514207118.94,45143,9.25,73608.0,-5.09,-5.65,-5.65,0,*5B
1514207120.19,45144,9.25,73598.3,-5.09,-5.65,-5.73,0,*5B
1514207121.43,45145,9.31,73596.0,-5.09,-5.61,-5.73,0,*5E
1514207122.7,45146,9.31,73618.5,-5.11,-5.69,-5.69,0,*57
1514207123.95,45147,9.25,73612.3,-5.09,-5.65,-5.61,0,*5B
1514207125.2,45148,9.31,73604.0,-5.09,-5.61,-5.61,0,*50
1514207126.47,45149,9.25,73584.8,-5.11,-5.69,-5.69,0,*58
1514207127.72,45150,9.25,73588.5,-5.09,-5.73,-5.61,0,*5A
1514207128.97,45151,9.31,73586.8,-5.09,-5.65,-5.61,0,*5C
1514207130.22,45152,9.25,73580.0,-5.09,-5.65,-5.65,0,*5B
1514207131.48,45153,9.31,73582.5,-5.11,-5.69,-5.77,0,*5C
1514207132.73,45154,9.31,73594.8,-5.09,-5.61,-5.65,0,*59
1514207134.0,45155,9.25,73608.8,-5.11,-5.65,-5.65,0,*55
1514207135.25,45156,9.31,73612.5,-5.09,-5.65,-5.65,0,*5F
1514207136.5,45157,9.31,73604.3,-5.09,-5.65,-5.61,0,*5A
1514207137.75,45158,9.31,73586.0,-5.09,-5.61,-5.61,0,*51
1514207139.02,45159,9.31,73598.8,-5.11,-5.69,-5.69,0,*59
1514207140.27,45160,9.31,73610.0,-5.09,-5.61,-5.65,0,*5E
1514207141.54,45161,9.31,73608.0,-5.11,-5.65,-5.65,0,*52
1514207142.81,45162,9.31,73610.0,-5.11,-5.69,-5.69,0,*51
1514207144.08,45163,9.31,73612.8,-5.11,-5.65,-5.65,0,*50
1514207145.32,45164,9.25,73608.3,-5.09,-5.61,-5.65,0,*5A
1514207146.57,45165,9.25,73608.0,-5.09,-5.65,-5.65,0,*5F
1514207147.82,45166,9.25,73594.0,-5.09,-5.65,-5.61,0,*58
1514207149.07,45167,9.31,73580.8,-5.09,-5.61,-5.61,0,*5D
1514207150.32,45168,9.31,73592.8,-5.09,-5.61,-5.65,0,*56
1514207151.57,45169,9.25,73612.8,-5.09,-5.65,-5.65,0,*53
1514207152.84,45170,9.31,73608.3,-5.11,-5.69,-5.65,0,*5E
1514207154.08,45171,9.31,73612.0,-5.09,-5.65,-5.65,0,*5A
1514207155.36,45172,9.31,73626.5,-5.11,-5.69,-5.69,0,*50
1514207156.6,45173,9.31,73628.0,-5.09,-5.65,-5.65,0,*58
1514207157.88,45174,9.25,73624.3,-5.11,-5.69,-5.65,0,*5A
1514207159.13,45175,9.31,73642.0,-5.09,-5.65,-5.61,0,*5A
1514207160.4,45176,9.25,73636.8,-5.11,-5.69,-5.65,0,*58
1514207161.67,45177,9.25,73632.3,-5.11,-5.69,-5.65,0,*59
1514207162.92,45178,9.25,73628.0,-5.09,-5.65,-5.65,0,*53
1514207164.19,45179,9.31,73624.5,-5.11,-5.69,-5.69,0,*5B
1514207165.46,45180,9.31,73618.5,-5.11,-5.65,-5.65,0,*5D
1514207166.73,45181,9.31,73606.0,-5.11,-5.69,-5.65,0,*50
1514207168.0,45182,9.25,73596.0,-5.11,-5.69,-5.65,0,*53
1514207169.27,45183,9.31,73598.0,-5.11,-5.69,-5.65,0,*52
1514207170.55,45184,9.25,73598.0,-5.11,-5.69,-5.69,0,*59
1514207171.82,45185,9.25,73596.5,-5.11,-5.69,-5.65,0,*54
1514207173.09,45186,9.25,73592.5,-5.11,-5.69,-5.65,0,*57
1514207174.36,45187,9.25,73584.8,-5.11,-5.69,-5.65,0,*56
1514207175.63,45188,9.31,73602.3,-5.11,-5.69,-5.69,0,*55
1514207176.88,45189,9.31,73618.0,-5.09,-5.61,-5.61,0,*5D
1514207178.13,45190,9.31,73612.8,-5.09,-5.61,-5.65,0,*51
1514207179.39,45191,9.31,73612.3,-5.11,-5.65,-5.77,0,*5E
1514207180.64,45192,9.25,73608.8,-5.09,-5.65,-5.65,0,*57
1514207181.91,45193,9.31,73616.5,-5.11,-5.69,-5.69,0,*5F
1514207183.19,45194,9.31,73598.0,-5.11,-5.65,-5.69,0,*54
1514207184.43,45195,9.31,73594.8,-5.09,-5.65,-5.65,0,*50
1514207185.68,45196,9.31,73592.0,-5.09,-5.65,-5.61,0,*57
1514207186.96,45197,9.31,73612.0,-5.11,-5.69,-5.69,0,*5B
1514207188.21,45198,9.31,73600.5,-5.09,-5.65,-5.61,0,*59
1514207189.46,45199,9.31,73612.0,-5.09,-5.65,-5.65,0,*5C
1514207190.71,45200,9.25,73588.5,-5.09,-5.65,-5.61,0,*5B
1514207191.98,45201,9.31,73604.8,-5.11,-5.77,-5.61,0,*50
1514207193.26,45202,9.31,73602.5,-5.11,-5.69,-5.69,0,*54
1514207194.5,45203,9.25,73586.8,-5.09,-5.65,-5.65,0,*5C
1514207195.78,45204,9.31,73572.0,-5.11,-5.69,-5.69,0,*52
1514207197.05,45205,9.25,73562.0,-5.11,-5.69,-5.69,0,*53
1514207198.32,45206,9.25,73600.8,-5.11,-5.69,-5.65,0,*5C
1514207199.57,45207,9.25,73604.8,-5.09,-5.69,-5.65,0,*54
1514207200.82,45208,9.25,73606.8,-5.09,-5.65,-5.61,0,*53
1514207202.09,45209,9.31,73624.5,-5.11,-5.69,-5.65,0,*53
1514207203.34,45210,9.25,73626.5,-5.09,-5.61,-5.61,0,*5E
1514207204.61,45211,9.31,73626.3,-5.11,-5.77,-5.69,0,*59
1514207205.88,45212,9.25,73626.3,-5.11,-5.69,-5.69,0,*55
1514207207.15,45213,9.31,73624.3,-5.11,-5.69,-5.65,0,*58
1514207208.4,45214,9.31,73604.3,-5.09,-5.65,-5.65,0,*5A
1514207209.67,45215,9.31,73620.0,-5.11,-5.69,-5.69,0,*52
1514207210.92,45216,9.31,73616.5,-5.09,-5.61,-5.65,0,*5C
1514207212.19,45217,9.31,73626.5,-5.11,-5.65,-5.69,0,*5C
1514207213.44,45218,9.25,73628.0,-5.09,-5.65,-5.61,0,*52
1514207214.69,45219,9.31,73620.3,-5.09,-5.65,-5.61,0,*53
1514207215.96,45220,9.31,73632.3,-5.11,-5.65,-5.65,0,*54
1514207217.23,45221,9.25,73624.8,-5.11,-5.69,-5.69,0,*55
1514207218.48,45222,9.25,73628.5,-5.09,-5.69,-5.65,0,*53
1514207219.76,45223,9.25,73630.0,-5.11,-5.69,-5.69,0,*57
1514207221.0,45224,9.31,73622.8,-5.09,-5.69,-5.69,0,*59
1514207222.28,45225,9.31,73626.5,-5.11,-5.69,-5.69,0,*51
1514207223.55,45226,9.31,73624.0,-5.11,-5.65,-5.61,0,*56
1514207224.8,45227,9.25,73620.3,-5.09,-5.65,-5.65,0,*5A
1514207226.07,45228,9.31,73624.0,-5.11,-5.69,-5.69,0,*5C
1514207227.34,45229,9.31,73630.0,-5.11,-5.77,-5.69,0,*52
1514207228.59,45230,9.25,73618.0,-5.09,-5.65,-5.61,0,*58
1514207229.84,45231,9.31,73622.3,-5.09,-5.65,-5.65,0,*5D
1514207231.11,45232,9.31,73616.5,-5.11,-5.69,-5.69,0,*57
1514207232.38,45233,9.31,73612.3,-5.11,-5.69,-5.65,0,*5A
1514207233.63,45234,9.31,73610.8,-5.09,-5.65,-5.65,0,*58
1514207234.9,45235,9.25,73604.5,-5.11,-5.69,-5.65,0,*5C
1514207236.17,45236,9.31,73600.5,-5.11,-5.65,-5.69,0,*5F
1514207237.45,45237,9.31,73604.5,-5.11,-5.69,-5.69,0,*52
1514207238.72,45238,9.31,73604.3,-5.11,-5.69,-5.69,0,*5D
1514207239.99,45239,9.31,73598.5,-5.11,-5.69,-5.69,0,*5C
1514207241.26,45240,9.31,73608.8,-5.11,-5.69,-5.69,0,*52
1514207242.53,45241,9.31,73602.8,-5.11,-5.69,-5.65,0,*5F
1514207243.78,45242,9.25,73598.8,-5.09,-5.65,-5.65,0,*59
1514207245.05,45243,9.31,73594.8,-5.11,-5.69,-5.69,0,*51
1514207246.32,45244,9.31,73602.0,-5.11,-5.69,-5.77,0,*59
1514207247.57,45245,9.31,73614.0,-5.09,-5.65,-5.73,0,*59
1514207248.81,45246,9.31,73622.5,-5.09,-5.65,-5.73,0,*5A
1514207250.08,45247,9.31,73630.3,-5.11,-5.69,-5.69,0,*55
1514207251.35,45248,9.25,73652.3,-5.11,-5.69,-5.69,0,*5A
1514207252.62,45249,9.31,73650.3,-5.11,-5.69,-5.69,0,*5B
1514207253.9,45250,9.25,73650.3,-5.11,-5.69,-5.69,0,*53
1514207255.15,45251,9.31,73648.5,-5.09,-5.65,-5.61,0,*5F
1514207256.39,45252,9.31,73646.8,-5.09,-5.73,-5.65,0,*5F
1514207257.66,45253,9.25,73634.0,-5.11,-5.69,-5.65,0,*5C
1514207258.93,45254,9.25,73612.8,-5.11,-5.65,-5.77,0,*54
1514207260.2,45255,9.31,73596.0,-5.11,-5.69,-5.65,0,*5A
1514207261.47,45256,9.31,73600.5,-5.11,-5.69,-5.69,0,*55
1514207262.74,45257,9.25,73590.3,-5.11,-5.69,-5.69,0,*54
1514207264.01,45258,9.31,73582.3,-5.11,-5.77,-5.81,0,*52
1514207265.29,45259,9.25,73578.3,-5.11,-5.69,-5.69,0,*5A
1514207266.56,45260,9.31,73598.8,-5.11,-5.77,-5.69,0,*5F
1514207267.83,45261,9.31,73600.3,-5.11,-5.69,-5.69,0,*51
1514207269.1,45262,9.31,73584.8,-5.11,-5.77,-5.69,0,*5D
1514207270.37,45263,9.31,73590.8,-5.11,-5.77,-5.69,0,*5C
1514207271.64,45264,9.31,73586.0,-5.11,-5.77,-5.65,0,*57
1514207272.91,45265,9.25,73596.5,-5.11,-5.81,-5.69,0,*53
1514207274.19,45266,9.25,73606.8,-5.11,-5.69,-5.65,0,*5A
1514207275.46,45267,9.31,73610.3,-5.11,-5.77,-5.69,0,*58
1514207276.73,45268,9.31,73602.8,-5.11,-5.69,-5.77,0,*57
1514207277.97,45269,9.31,73612.0,-5.13,-5.77,-5.69,0,*54
1514207279.25,45270,9.25,73604.8,-5.11,-5.77,-5.69,0,*5E
1514207280.52,45271,9.31,73592.8,-5.11,-5.77,-5.69,0,*5F
1514207281.76,45272,9.25,73568.5,-5.09,-5.77,-5.69,0,*55
1514207283.04,45273,9.25,73570.5,-5.11,-5.77,-5.69,0,*5D
1514207284.28,45274,9.25,73586.3,-5.09,-5.73,-5.61,0,*5F
1514207285.55,45275,9.31,73606.5,-5.11,-5.77,-5.77,0,*54
1514207286.82,45276,9.31,73604.0,-5.11,-5.69,-5.69,0,*57
1514207288.07,45277,9.31,73622.3,-5.09,-5.65,-5.73,0,*58
1514207289.33,45278,9.31,73622.0,-5.11,-5.77,-5.77,0,*59
1514207290.6,45279,9.31,73614.5,-5.11,-5.69,-5.69,0,*58
1514207291.88,45280,9.25,73616.3,-5.11,-5.69,-5.69,0,*5E
1514207293.15,45281,9.31,73630.0,-5.11,-5.69,-5.69,0,*5F
1514207294.42,45282,9.31,73642.8,-5.11,-5.77,-5.69,0,*53
1514207295.69,45283,9.31,73630.3,-5.11,-5.69,-5.69,0,*5D
1514207296.96,45284,9.31,73600.0,-5.11,-5.69,-5.69,0,*5A
1514207298.23,45285,9.31,73622.3,-5.11,-5.69,-5.77,0,*54
1514207299.5,45286,9.31,73618.8,-5.11,-5.65,-5.77,0,*5B
1514207300.77,45287,9.31,73624.3,-5.11,-5.77,-5.77,0,*59
1514207302.04,45288,9.31,73610.8,-5.11,-5.77,-5.77,0,*56
1514207303.28,45289,9.31,73600.3,-5.13,-5.77,-5.69,0,*5A
1514207304.55,45290,9.31,73612.0,-5.11,-5.77,-5.69,0,*50
1514207305.8,45291,9.31,73616.0,-5.09,-5.65,-5.65,0,*57
1514207307.07,45292,9.25,73626.0,-5.11,-5.69,-5.81,0,*5B
1514207308.35,45293,9.31,73630.8,-5.11,-5.77,-5.69,0,*53
1514207309.62,45294,9.31,73624.3,-5.11,-5.69,-5.69,0,*5B
1514207310.89,45295,9.31,73622.5,-5.11,-5.69,-5.69,0,*5A
1514207312.16,45296,9.31,73612.0,-5.11,-5.77,-5.77,0,*59
1514207313.43,45297,9.31,73596.3,-5.11,-5.77,-5.65,0,*5B
1514207314.68,45298,9.31,73602.0,-5.13,-5.77,-5.69,0,*5A
1514207315.92,45299,9.31,73606.3,-5.13,-5.77,-5.69,0,*5B
1514207317.17,45300,9.31,73614.8,-5.13,-5.77,-5.69,0,*5A
1514207318.42,45301,9.31,73590.3,-5.13,-5.77,-5.69,0,*5B
1514207319.67,45302,9.31,73600.5,-5.13,-5.77,-5.65,0,*54
1514207320.94,45303,9.31,73604.8,-5.11,-5.69,-5.77,0,*5B
1514207322.21,45304,9.31,73598.3,-5.11,-5.77,-5.77,0,*53
1514207323.48,45305,9.31,73618.5,-5.11,-5.69,-5.69,0,*52
1514207324.75,45306,9.25,73618.5,-5.11,-5.69,-5.77,0,*5E
1514207326.02,45307,9.25,73606.0,-5.11,-5.69,-5.65,0,*5C
1514207327.29,45308,9.31,73598.3,-5.11,-5.77,-5.69,0,*50
1514207328.56,45309,9.31,73598.5,-5.11,-5.77,-5.77,0,*5E
1514207329.8,45310,9.31,73610.8,-5.13,-5.69,-5.69,0,*54